Starlink 33802

operational
NORAD ID: 64392 Int'l Des: 2025-127 Owner: SPXS Country: US Constellation: starlink
LEOCIRCULAR

Über Starlink 33802

Beschreibung wird geladen...

Live-Position

3D-Globus wird geladen...

Nächste Überflüge

Höhenverlauf

Altitude vs Time

uPlot chart will show altitude changes over time

Zweizeiliger Elementsatz

1 64392U 25127Y 26062.48064921 .00028769 00000-0 10500-2 0 9991
2 64392 43.0046 215.1850 0002554 280.0913 79.9650 15.27607716 41568
Epoch: 3. März 2026 • Age: 21 hours

Aktueller Status

Höhe 494.4 km
Geschwindigkeit 7.62 km/s
Subsatellitenpunkt -42.61°S, 2.37°E
Startdatum 13. Juni 2025
Alter 0.7 years
Typ internet

Technische Details

Klassifizierung Payload
Masse 575.00 kg
Trockenmasse 530.00 kg
Gesamtmasse 575.00 kg
Länge 0.30 m
Durchmesser 4.10 m
Spannweite 29.00 m
Form Box + pan
Hersteller SPXS
Bus-Typ Starlink V2MO
Phasenstatus In Orbit
Besitzer/Staat SPXS/US

Große Konstellationen

Loading constellations...